Location: Bom Successo
(22.8608°S, 43.2522°W)
Time: 05:41:51
(UTC+00:00)

Daily predictions for brighter satellites

Satellite Brightness Start Highest point End
(mag) Time Altitude Azimuth Time Altitude Azimuth Time Altitude Azimuth
Skynet4D Del rocket 4.5 06:49:26 71° NNE 06:49:26 71° NNE 06:57:31 10° ESE
CZ-3A R/B 3.4 06:53:00 32° E 06:53:00 32° E 06:57:51 10° E
ISS -0.2 06:59:34 11° E 06:59:34 11° E 06:59:46 10° E
CZ-3 R/B 3.4 07:09:06 39° W 07:20:29 76° SSW 07:28:46 10° ESE
Cosmos 371 Rocket 3.6 07:23:04 50° SSE 07:24:11 67° ESE 07:29:01 10° NNE
Spot 2 4.3 07:20:09 10° NNE 07:24:14 67° ENE 07:24:14 67° ENE
CZ-4B R/B 3.9 07:23:31 10° SE 07:26:20 23° E 07:29:04 10° NNE
Cosmos 2369 Rocket 3.3 07:23:49 10° S 07:29:11 42° ESE 07:34:28 10° NE
Sakura Rocket 3.4 07:33:12 59° SSW 07:33:39 62° SSE 07:39:31 10° E
Cosmos 1943 Rocket 2.2 07:32:22 26° SSW 07:35:40 83° ESE 07:41:18 10° NNE
FALCON 9 DEB 3.8 07:39:26 55° E 07:39:26 55° E 07:42:23 10° SE
Meteor 1-27 4.4 07:36:13 10° S 07:41:52 73° E 07:47:32 10° NNE
RESURS DK-1 4.4 07:54:04 15° NNW 07:54:04 15° NNW 07:54:54 10° NNW
SL-4 R/B 2.2 07:52:43 45° SSW 07:52:43 45° SSW 07:56:07 10° SSE
GPS 2-17 Rocket1 3.2 07:51:55 45° WNW 07:53:01 62° N 07:57:32 10° ENE
Cosmos 2221 3.6 07:50:50 10° S 07:55:07 46° E 07:59:18 10° NNE
CZ-4C R/B 2.6 07:59:07 29° WNW 07:59:07 29° WNW 08:02:31 10° N
Cosmos 1408 2.9 07:55:53 10° N 07:59:29 67° E 08:03:07 10° S
CZ-3C R/B 3.0 07:59:02 10° N 07:59:37 11° NNE 08:00:12 10° NE
Cosmos 2058 2.8 07:57:04 10° N 08:01:16 75° W 08:05:31 10° S
Star 48 S/N 10017-12 4.3 08:00:07 31° W 08:02:21 90° NW 08:04:51 10° E
Cosmos 2181 Rocket 4.3 07:58:55 10° S 08:05:24 72° E 08:11:44 10° N
Cosmos 494 Rocket 4.5 08:02:24 18° NW 08:05:39 36° WSW 08:10:31 10° S
COSMOS 2455 4.1 08:08:14 20° WNW 08:08:14 20° WNW 08:11:54 10° NNW
Cosmos 1892 2.9 08:04:33 10° NNW 08:08:11 45° W 08:11:51 10° S
Cosmos 1932 4.5 08:03:33 10° NW 08:09:34 54° WSW 08:15:34 10° SSE
Cosmos 304 Rocket 3.7 08:04:56 10° SSW 08:09:48 86° WNW 08:14:36 10° NNE
Centaur AC-102 4.2 08:06:10 15° WNW 08:10:06 39° N 08:14:59 10° ENE
H-2A R/B 2.6 08:08:00 10° NNE 08:11:48 89° WNW 08:15:36 10° S
Cosmos 1340 4.1 08:09:53 10° NNE 08:13:25 40° E 08:16:59 10° SSE
YAOGAN 6 3.8 08:16:03 10° NNE 08:19:23 42° ESE 08:22:46 10° S
SJ-7 4.5 08:15:28 10° N 08:19:37 61° W 08:23:51 10° SSW
Cosmos 2184 Rocket 3.9 08:15:26 10° N 08:21:36 86° W 08:27:50 10° S
H-2A R/B 3.2 08:18:28 10° NNW 08:21:58 30° W 08:25:39 10° SW
Cosmos 2074 Rocket 4.0 08:15:46 10° N 08:22:03 82° W 08:28:24 10° S
Cosmos 1452 Rocket 3.8 08:22:44 10° SSW 08:27:48 46° WNW 08:32:48 10° N
Palapa 6 Rocket 3.2 08:25:31 17° W 08:29:35 79° N 08:33:58 10° ENE
SAR-Lupe-4 4.2 08:26:59 10° S 08:30:15 33° WSW 08:33:30 10° NW
ISS -2.0 08:32:35 15° W 08:33:39 17° NW 08:35:55 10° NNW
ARGOS Delta rocket 3.6 08:33:12 10° N 08:37:35 74° W 08:42:03 10° SSW
Cosmos 1842 Rocket 4.2 08:35:26 10° SSW 08:39:26 34° W 08:43:21 10° NNW
ADEOS Rocket 3.4 08:33:19 10° S 08:39:58 63° WSW 08:47:14 10° NNW
FUSE 4.0 08:36:15 13° W 08:41:07 72° S 08:46:28 10° E
Cosmos 1825 2.5 08:38:40 10° NNW 08:42:15 43° W 08:45:54 10° S
Cosmos 1869 4.1 08:39:11 10° SSW 08:42:39 29° W 08:46:07 10° NNW
SMAP 3.0 08:42:25 10° N 08:47:02 71° WNW 08:51:44 10° SSW
NOAA 12 4.1 08:43:46 10° NNE 08:49:01 88° WNW 08:54:20 10° SSW
Okean O Rocket 2.0 08:48:05 10° N 08:52:18 43° W 08:56:34 10° SSW
Cosmos 1656 Rocket 3.7 08:48:29 10° SSW 08:53:57 58° WNW 08:59:16 10° N
Centaur D-1AR AC-36 4.2 08:27:35 10° WNW 09:03:22 55° N 09:08:29 10° E
